STARLINK-32582, 62033

Orbit data source: Space-Track

STARLINK-32582, 62033 is a payload satellite owned by SpaceX/Seattle (US) in LEO that was launched on Thu, 21 Nov 2024 UTC via an FALCON 9 launch vehicle from the Air Force Eastern Test Range (AFETR). Payload-class satellites include a variety of spacecraft equipped with specific instruments for various scientific and technological missions. These include communications satellites like Starlink; space stations such as the ISS; scientific satellites like the Hubble; Earth observation satellites from companies like Planet Labs, Umbra, and HawkEye 360; GPS; miniature CubeSats for education and research; and military/defense satellites.

Loading next visibility...
Identifier
62033, 2024-216B
Orbit
LEO
Country
Flag of USUS
Related business
Manufacturer
SpaceX/Seattle
Mission
Operational Commercial Communications
Bus & Motor
STARLINK V2M, Unknown motor
Mass
730 kg wet, ~700 kg dry
Launch date (UTC)
2024-11-21 (1 year ago)
Launch vehicle
FALCON 9
Launch site
Air Force Eastern Test Range (AFETR)
Object type
Payload
Rocket body
Debris
Shape & HBR
Box + 2 Pan, 17.7 m
Radar Cross Section
33.884 m², Large (>1 m²)

Expand to show TLE details & history
Last TLE update: 9 hours ago

TLE from 9 hours ago
0 STARLINK-32582
1 62033U 24216B   25353.71553654  .00019411  00000-0  71316-3 0  9990
2 62033  42.9982 354.9828 0000529  19.9723 340.1149 15.27575092 61569
Epoch: 2025-12-19T17:10Z
TLE epoch observation values (Epoch: 2025-12-19T17:10:22.357Z)
Latitude
-0.00002°
Longitude
8.83692°
Altitude
482.498 km
Speed
7.626 km/s
True Right ascension
23h 39m 55s
True Declination
0° 00' 00"
Sunlit
Object was in daylight at epoch
Visualization orbit readout
Latitude
Unknown
Longitude
Unknown
Altitude
Unknown
Speed
Unknown
Apparent Right ascension
Unknown
Apparent Declination
Unknown
Sunlit
N/A
Visualization observer readout
Local Sidereal Time
00:39:12
Azimuth
Unknown
Elevation
Unknown
Doppler factor
Unknown
Orbital elements
Apogee altitude
485.372 km
Perigee altitude
484.646 km
Semi-major axis
6,863.146 km
Eccentricity
0.00005
Inclination
42.9982°
RAAN
354.9828°
Arg. of periapsis
19.9723°
True anomaly
340.11284°
Mean anomaly
340.1149°
Eccentric anomaly
340.11387°
Mean motion
3.81732 °/min
Orbital period
94.31 mins
BSTAR
0.00071316
Loading maneuver chart data...
Computing Atmospheric mass density...
Loading historical data...
Loading historical data...
Loading historical data...
Loading historical data...
Loading historical data...
Loading historical data...
Loading historical data...

Documentation

Showing up to 5 results
|